This demonstration page uses our WeatherBlox Daily Observations layout. Learn more.

Left ArrowRight Arrow

Hourly Observations for September 28, 2022

Temp ( °F °C ) Dew Point ( °F °C ) Humidity (%) Winds ( mph kmh ) Pressure ( in mb ) Visibility ( mi km ) Precip ( " mm )
12:53 am 00:53 Clear 57 13.9 41 5 55 55 E 7 11 30.30 1026 10 16 0.00 0.00
1:53 am 01:53 Clear 57 13.9 41 5 55 55 E 10 17 30.31 1027 10 16 0.00 0.00
2:53 am 02:53 Clear 50 10 42 5.6 74 74 ENE 6 9 30.34 1027 10 16 0.00 0.00
3:53 am 03:53 Clear 55 12.8 42 5.6 62 62 E 10 17 30.33 1027 10 16 0.00 0.00
4:53 am 04:53 Clear 54 12.2 41 5 61 61 ESE 10 17 30.33 1027 10 16 0.00 0.00
5:53 am 05:53 Clear 52 11.1 41 5 66 66 ESE 9 15 30.35 1028 10 16 0.00 0.00
6:53 am 06:53 Clear 50 10 39 3.9 66 66 E 8 13 30.36 1028 10 16 0.00 0.00
7:53 am 07:53 Sunny 50 10 38 3.3 63 63 E 9 15 30.39 1029 10 16 0.00 0.00
8:53 am 08:53 Sunny 53 11.7 38 3.3 56 56 SE 9 15 30.40 1029 10 16 0.00 0.00
9:53 am 09:53 Sunny 55 12.8 39 3.9 55 55 SE 9 15 30.41 1030 10 16 0.00 0.00
10:53 am 10:53 Sunny 61 16.1 41 5 48 48 SE 9 15 30.41 1030 10 16 0.00 0.00
11:53 am 11:53 Sunny 66 18.9 41 5 40 40 SE 12 19 30.40 1030 10 16 0.00 0.00
12:53 pm 12:53 Sunny 68 20 41 5 37 37 SE 10 17 30.39 1029 10 16 0.00 0.00
1:53 pm 13:53 Sunny 72 22.2 41 5 33 33 SE 13 20 30.36 1028 10 16 0.00 0.00
2:53 pm 14:53 Sunny 72 22.2 41 5 33 33 ESE 12 19 30.35 1028 10 16 0.00 0.00
3:53 pm 15:53 Sunny 73 22.8 40 4.4 30 30 SE 9 15 30.32 1027 10 16 0.00 0.00
4:53 pm 16:53 Sunny 73 22.8 40 4.4 30 30 SE 9 15 30.30 1026 10 16 0.00 0.00
5:53 pm 17:53 Sunny 72 22.2 40 4.4 31 31 SE 12 19 30.29 1026 10 16 0.00 0.00
6:53 pm 18:53 Sunny 69 20.6 39 3.9 33 33 SE 9 15 30.30 1026 10 16 0.00 0.00
7:53 pm 19:53 Clear 65 18.3 39 3.9 38 38 SE 9 15 30.31 1026 10 16 0.00 0.00
8:53 pm 20:53 Clear 62 16.7 38 3.3 41 41 SE 10 17 30.31 1026 10 16 0.00 0.00
9:53 pm 21:53 Clear 59 15 37 2.8 44 44 SE 9 15 30.33 1027 10 16 0.00 0.00
10:53 pm 22:53 Clear 57 13.9 35 1.7 43 43 SE 9 15 30.33 1027 10 16 0.00 0.00
11:53 pm 23:53 Clear 55 12.8 34 1.1 45 45 SE 12 19 30.32 1027 10 16 0.00 0.00

Powered by AerisWeather